CZ-6A DEB, 61126

Orbit data source: Space-Track

CZ-6A DEB, 61126 is space debris in LEO originally from a launch on Tue, 06 Aug 2024 UTC launched from the Taiyaun Space Center, China (TSC). Debris objects in space refer to the collection of defunct objects orbiting the Earth. Examples of debris include non-operational satellites, rocket bodies, and fragments generated from explosions, collisions, or faulty payload assembly.

Loading next visibility...
Identifier
61126, 2024-140PU
Orbit
LEO
Country
Flag of CNCN / PRC
Related business
Manufacturer
SAST
Mission
Spacecraft
Bus & Motor
Unknown
Mass
Unknown
Launch date (UTC)
2024-08-06 (2 years ago)
Launch vehicle
Unknown
Launch site
Taiyaun Space Center, China (TSC)
Object type
Payload
Rocket body
Debris
Shape & HBR
Unknown shape, 0.1 m
Radar Cross Section
Small (<0.1 m²)

Expand to show TLE details & history
Last TLE update: 14 hours ago

TLE from 14 hours ago
0 CZ-6A DEB
1 61126U 24140PU  26171.28409969  .00008768  00000-0  49550-3 0  9996
2 61126  89.1501 278.4036 0193070  77.8109 284.4675 14.98417100 99485
Epoch: 2026-06-20T06:49Z
TLE epoch observation values (Epoch: 2026-06-20T06:49:06.213Z)
Latitude
-0.00005°
Longitude
-92.37322°
Altitude
543.869 km
Speed
7.607 km/s
True Right ascension
18h 33m 36s
True Declination
0° 00' 00"
Sunlit
Object was in full shadow at epoch
Visualization orbit readout
Latitude
Unknown
Longitude
Unknown
Altitude
Unknown
Speed
Unknown
Apparent Right ascension
Unknown
Apparent Declination
Unknown
Sunlit
N/A
Visualization observer readout
Local Sidereal Time
07:24:44
Azimuth
Unknown
Elevation
Unknown
Doppler factor
Unknown
Orbital elements
Apogee altitude
702.745 km
Perigee altitude
434.503 km
Semi-major axis
6,946.761 km
Eccentricity
0.01931
Inclination
89.1501°
RAAN
278.4036°
Arg. of periapsis
77.8109°
True anomaly
282.31275°
Mean anomaly
284.4675°
Eccentric anomaly
283.39137°
Mean motion
3.7486 °/min
Orbital period
96.04 mins
BSTAR
0.0004955
Loading maneuver chart data...
Computing Atmospheric mass density...
Loading historical data...
Loading historical data...
Loading historical data...
Loading historical data...
Loading historical data...
Loading historical data...
Loading historical data...

Documentation

Showing up to 5 results
|